Location: Winnipeg
(49.8830°N, 97.1670°W)
Time: 03:54:47
(UTC-06:00)

ISS - Pass Details

Date: 24 January 2021
Orbit: 417 x 422 km, 51.6° (Epoch: 07 March)

Event Time Altitude Azimuth Distance (km) Brightness Sun altitude
Rises 19:29:49 0° 265° (W) 2,372 1.6 -22.2°
Reaches altitude 10° 19:31:56 10° 268° (W) 1,509 0.2 -22.5°
Enters shadow 19:34:36 49° 292° (WNW) 553 -2.9 -22.9°
